Skip Page Navigation
NASA JPL Caltech
NASA Logo - Jet Propulsion Laboratory + View the NASA Portal
+ Center for Near-Earth Object Studies
JPL Home Earth Solar System Stars & Galaxies Technology
JPL Solar System Dynamics
BODIES ORBITS EPHEMERIDES TOOLS PHYSICAL DATA DISCOVERY FAQ SITE MAP
IMPORTANT: The SSD Announcement email list is now available. Major changes are coming in the near future, including possible hostname and/or URL changes. To be notified of such changes, subscribe to this email list.

Please visit this page for more details.


JPL Small-Body Database Browser
Search: [ help ]  
(2009 HU44)
Classification: Aten [NEO]          SPK-ID: 3458579
Ephemeris | Orbit Diagram | Orbital Elements | Mission Design | Physical Parameters | Close-Approach Data ]

[ hide orbit diagram ]

For accurate long-term ephemerides, please instead use our Horizons system.This orbit viewer was implemented using two-body methods, and hence should not be used for determining accurate long-term trajectories (over several years or decades) or planetary encounter circumstances.


[ revert to old Java-based viewer ]

Orbital Elements at Epoch 2458600.5 (2019-Apr-27.0) TDB
Reference: JPL 12 (heliocentric ecliptic J2000)
 Element Value Uncertainty (1-sigma)   Units 
e .644049467243734 0.00040659  
a .8301923730890585 8.0984e-05 au
q .2955074174912391 0.00030873 au
i 6.637920701472861 0.0086484 deg
node 212.8944384410975 0.002501 deg
peri 213.6123308984235 0.011116 deg
M 166.8413915446868 0.80648 deg
tp 2458472.453462748985
(2018-Dec-19.95346275)
0.60022 TDB
period 276.2908711296561
0.76
0.040428
0.0001107
d
yr
n 1.302974645988435 0.00019066 deg/d
Q 1.364877328686878 0.00013314 au
  Orbit Determination Parameters
   # obs. used (total)      63  
   data-arc span      21 days  
   first obs. used      2009-04-22  
   last obs. used      2009-05-13  
   planetary ephem.      DE431  
   SB-pert. ephem.      SB431-N16  
   condition code      6  
   norm. resid. RMS      .52494  
   source      ORB  
   producer      Otto Matic  
   solution date      2017-Apr-06 09:00:43  

Additional Information
 Earth MOID = .00621665 au 
 Jupiter MOID = 3.96467 au 
 T_jup = 6.875 
[ show covariance matrix ]

Ephemeris | Orbit Diagram | Orbital Elements | Mission Design | Physical Parameters | Close-Approach Data ]

Physical Parameter Table
Parameter Symbol Value Units Sigma Reference Notes
absolute magnitude H 22.6   n/a MPO158645  

[ show close-approach data ]
Ephemeris | Orbit Diagram | Orbital Elements | Mission Design | Physical Parameters | Close-Approach Data ]
ABOUT SSD CREDITS/AWARDS PRIVACY/COPYRIGHT GLOSSARY LINKS
FirstGov
(server date/time)  
NASA Home Page
Site Manager:   Ryan S. Park
Webmaster  Alan B. Chamberlin